Regional Weather Roundup
Issued by NWS

Home | Current Version | Previous Version | Graphics & Text | Print | Product List | Glossary On
Versions: 1 2 3 4 5 6 7 8 9 10 11 12 13 14 15 16 17 18 19 20 21 22 23 24 25 26 27 28 29 30 31 32 33 34 35 36 37 38 39 40 41 42 43 44 45 46 47 48 49 50
000
ASUS43 KLMK 211710
RWRKY
KENTUCKY REGIONAL WEATHER ROUNDUP
NATIONAL WEATHER SERVICE LOUISVILLE KY
100 PM EDT MON AUG 21 2017

NOTE "FAIR" INDICATES FEW OR NO CLOUDS BELOW 12,000 FEET
WITH NO SIGNIFICANT WEATHER AND/OR OBSTRUCTIONS TO VISIBILITY.

KYZ001>023-026-027-061>063-070>075-211800-
WESTERN AND SOUTH CENTRAL KENTUCKY

CITY           SKY/WX    TMP DP  RH WIND       PRES   REMARKS
PADUCAH        SUNNY     92  74  55 S5        30.12F HX 101
HENDERSON      CLOUDY    90  74  59 SW6       30.13F HX  99
OWENSBORO      SUNNY     91  69  48 VRB5      30.14F HX  96
HOPKINSVILLE   SUNNY     91  72  53 SW6       30.15F HX  98
BOWLING GREEN  MOSUNNY   92  66  42 VRB7      30.16F HX  94
GLASGOW        SUNNY     90  69  50 SW6       30.18S HX  94
$$

KYZ024-025-028>034-038-045-046-053-211800-
NORTH CENTRAL KENTUCKY

CITY           SKY/WX    TMP DP  RH WIND       PRES   REMARKS
LOUISVILLE/SDF PTSUNNY   91  68  46 SW6       30.15F HX  95
LOUISVILLE/LOU PTSUNNY   90  70  51 SW7       30.16F HX  95
FORT KNOX      SUNNY     91  68  46 SW6       30.15F HX  95
$$

KYZ035>037-039>044-047>052-055>060-089>105-211800-
NORTHEAST KENTUCKY

CITY           SKY/WX    TMP DP  RH WIND       PRES   REMARKS
LEXINGTON      SUNNY     88  64  44 SW7       30.19F
COVINGTON      MOSUNNY   88  71  57 S10       30.16F HX  94
FRANKFORT      MOSUNNY   89  67  47 S5        30.17F HX  92
$$

KYZ054-064>069-076>088-106>120-211800-
SOUTHEAST KENTUCKY

CITY           SKY/WX    TMP DP  RH WIND       PRES   REMARKS
JACKSON        SUNNY     85  70  60 CALM      30.23F
LONDON         SUNNY     86  66  51 S6        30.22F
SOMERSET       SUNNY     86  66  51 W5        30.22S
MIDDLESBORO    SUNNY     88  68  51 S6        30.23F HX  91
MONTICELLO     MOSUNNY   89  69  51 W10G17    30.22F HX  93
$$





USA.gov is the U.S. government's official web portal to all federal, state and local government web resources and services.